Regional Weather Roundup
Issued by NWS New Orleans/Baton Rouge, LA

Home | Current Version | Previous Version | Text Only | Print | Product List | Glossary On
Versions: 1 2 3 4 5 6 7 8 9 10 11 12 13 14 15 16 17 18 19 20 21 22 23 24 25 26 27 28 29 30 31 32 33 34 35 36 37 38 39 40 41 42 43 44 45 46 47 48 49 50
655
ASUS44 KLIX 042001
RWRLIX
NEW ORLEANS REGIONAL WEATHER ROUNDUP
NATIONAL WEATHER SERVICE NEW ORLEANS LA
200 PM CST WED MAR 04 2015

NOTE: "FAIR" INDICATES FEW OR NO CLOUDS BELOW 12,000 FEET WITH NO
      SIGNIFICANT WEATHER AND/OR OBSTRUCTIONS TO VISIBILITY.
      SKY/WX - SKY CONDITION AND SIGNIFICANT WEATHER.
      TMP - AIR TEMPERATURE.     DP    - DEWPOINT TEMPERATURE.
      RH  - RELATIVE HUMIDITY.   PRES  - PRESSURE.
      HI  - HEAT INDEX.          WCI   - WIND CHILL INDEX.

*  THESE STATIONS ARE NOT NWS OR FAA STATIONS AND ARE NOT UNDER
   NWS QUALITY CONTROL.

LAZ038-040-048-061>063-065>067-069-042100-
SOUTHEAST LOUISIANA

CITY           SKY/WX    TMP DP  RH WIND       PRES   REMARKS
N.O. AUDUBON   NOT AVBL
N.O. INTL ARPT PTSUNNY   80  66  62 S16G26    29.92F
N.O. LAKEFRONT MOSUNNY   84  65  52 S21       29.93F
SLIDELL        MOSUNNY   79  70  74 S9        29.92F
BATON ROUGE    PTSUNNY   82  65  56 S17       29.90F
BOOTHVILLE     MOSUNNY   77  70  79 S10       29.96F
BELLE CHASSE   PTSUNNY   82  67  60 SW18G28   29.92F
BOGALUSA*        N/A     83  63  50 SW15G22   29.92F
GALLIANO*      CLOUDY    83  71  65 S18G25    29.94F
NEW ROADS*     NOT AVBL
GONZALES*      NOT AVBL
HAMMOND*       NOT AVBL
HOUMA*         PTSUNNY   81  70  69 S16G23    29.93F
PORT FOURCHON* MOCLDY    77  70  78 SE8       29.97F

$$

MSZ070-080>082-042100-
SOUTHERN MISSISSIPPI

CITY           SKY/WX    TMP DP  RH WIND       PRES   REMARKS
MCCOMB         MOSUNNY   80  63  55 SW13G18   29.90F
GULFPORT       RAIN      69  67  93 S6        29.96F FOG
BILOXI         PTSUNNY   71  69  92 S13G20    29.95F
PASCAGOULA     CLOUDY    77  69  76 S15G21    29.96F
STENNIS ARPT*  PTSUNNY   77  66  69 S10       29.94F

$$

COASTAL OBSERVATIONS
LAKE AND NEARSHORE STATIONS

STATION/POSITION TIME  TEMP    WIND        PRES    WAVE
                       AIR SEA DIR/SP/G            HT/PER
                 (UTC) (F)     (DEG/KT/KT) (MB)    (FT/S)
PASCAGOULA       1918   73     150/  8/ 16 1014.7
WAVELAND YACHT   1918   68 60  210/  4/  7 1014.8
GRAND ISLE       1918   74 66  160/  5/  8 1015.1
SOUTHWEST PASS   1918   71 46  160/  9/ 10 1015.1
NEW CANAL        1918   80     210/ 12/ 18 1014.2
SHELL BEACH      1918   77 61  190/ 10/ 18 1014.5

OFFSHORE STATIONS

STATION/POSITION TIME  TEMP    WIND        PRES    WAVE
                       AIR SEA DIR/SP/G            HT/PER
                 (UTC) (F)     (DEG/KT/KT) (MB)    (FT/S)
64 S DAUPHIN ISL 1947   73 72  160/ 14/ 16 1015.1    5/ 7

$$




USA.gov is the U.S. government's official web portal to all federal, state and local government web resources and services.